User: anonymous   Login
Location: Caltech
(34.1382°N, 118.1253°W)
Time: 20:42:13
(UTC-07:00)
Language:

IRS-1A Rocket - Orbit

View from above orbital plane
View from above orbital plane
View from above satellite
View from above satellite

Ground track
Ground track

The orbit data is extracted from the following two-line orbital elements,

1 18961U 88021B   18170.55419772 -.00000243  00000-0 -12993-3 0  9999
2 18961  99.3065 191.1802 0053383 301.6725 210.1774 14.00650712546842
Epoch (UTC): 19 June 2018 13:18:02
Eccentricity: 0.0053383
inclination: 99.3065°
perigee height: 853 km
apogee height: 930 km
right ascension of ascending node: 191.1802°
argument of perigee: 301.6725°
revolutions per day: 14.00650712
mean anomaly at epoch: 210.1774°
orbit number at epoch: 54684

The dashed part of the orbit path shows where the satellite is in the earth's shadow,  

DLR